Flag for Germany Weather past 2 weeks in Monheim am Rhein, North Rhine-Westphalia, Germany

Now
77 °F

Sunny.


Feels Like: 79 °F
Forecast: 63 / 83 °F
Wind: 3 mph from North

Location: Duesseldorf

Current Time: Aug 1, 2014 at 12:29:29 PM

Latest Report: Aug 1, 2014 at 11:50 AM


Visibility: 10 mi

Pressure: 29.86 "Hg

Humidity: 47%

Dew point: 55 °F

Location of Monheim am RheinLocation

Historic Weather in Monheim am Rhein — Graph

°F

Monheim am Rhein temperature yesterday

Maximum temperature yesterday: 79 °F (at 5:50 PM)
Minimum temperature yesterday: 55 °F (at 5:20 AM)
Average temperature yesterday: 67 °F

Past Weeks' High & Low Weather Summary

 TemperatureHumidityPressure
High93 °F (Jul 19, 3:50 PM)100% (Jul 21, 11:20 PM)30.18 "Hg (Jul 21, 11:20 PM)
Low55 °F (Jul 31, 5:20 AM)23% (Jul 19, 4:50 PM)29.77 "Hg (Jul 19, 10:50 PM)
Average72 °F69%29.93 "Hg
* Reported Jul 17 11:20 AM — Aug 1 11:20 AM, Monheim am Rhein, Weather by CustomWeather, © 2014

Note: Actual official high and low records may vary slightly from our data, if they occured in-between our weather recording intervals... More about our weather records

Advertising

Monheim am Rhein weather history for previous 24 hours

 ConditionsComfort  
Time TempWeatherWind HumidityBarometerVisibility
11:20 AM
Aug 1
75 °FSunny.5 mph54%29.86 "Hg10 mi
10:50 AM75 °FSunny.5 mph54%29.86 "Hg10 mi
10:20 AM73 °FSunny.6 mph57%29.89 "Hg10 mi
9:50 AM72 °FSunny.6 mph61%29.89 "Hg10 mi
9:20 AM70 °FSunny.6 mph64%29.89 "Hg10 mi
8:50 AM66 °FSunny.6 mph68%29.89 "Hg10 mi
8:20 AM66 °FSunny.7 mph68%29.86 "Hg10 mi
7:50 AM64 °FSunny.8 mph73%29.86 "Hg10 mi
7:20 AM64 °FSunny.9 mph73%29.86 "Hg10 mi
6:50 AM64 °FClear.6 mph73%29.86 "Hg10 mi
6:20 AM63 °FClear.6 mph73%29.86 "Hg10 mi
5:50 AM63 °FClear.5 mph73%29.89 "Hg10 mi
5:20 AM63 °FClear.2 mph73%29.89 "Hg10 mi
4:50 AM63 °FClear.7 mph73%29.89 "Hg10 mi
4:20 AM64 °FClear.7 mph68%29.89 "Hg10 mi
3:50 AM63 °FClear.7 mph73%29.89 "Hg10 mi
3:20 AM63 °FClear.7 mph77%29.89 "Hg10 mi
2:50 AM63 °FClear.6 mph77%29.89 "Hg10 mi
2:20 AM64 °FClear.2 mph73%29.89 "Hg10 mi
1:50 AM63 °FClear.2 mph77%29.89 "Hg10 mi
1:20 AM63 °FClear.3 mph77%29.89 "Hg10 mi
12:50 AM63 °FClear.5 mph77%29.92 "Hg10 mi
12:20 AM63 °FClear.3 mph77%29.92 "Hg10 mi
11:50 PM
Jul 31
64 °FClear.5 mph78%29.92 "Hg10 mi
11:20 PM64 °FClear.3 mph78%29.92 "Hg10 mi
10:50 PM64 °FClear.5 mph78%29.92 "Hg10 mi
10:20 PM66 °FSunny.5 mph73%29.92 "Hg10 mi
9:50 PM68 °FSunny.3 mph69%29.92 "Hg10 mi
9:20 PM72 °FSunny.5 mph61%29.92 "Hg10 mi
8:50 PM73 °FSunny.5 mph53%29.92 "Hg10 mi
8:20 PM75 °FSunny.5 mph47%29.92 "Hg10 mi
7:50 PM77 °FSunny.3 mph42%29.92 "Hg10 mi
7:20 PM77 °FSunny.3 mph39%29.92 "Hg10 mi
6:50 PM79 °FSunny.2 mph39%29.92 "Hg10 mi
6:20 PM77 °FSunny.5 mph39%29.92 "Hg10 mi
5:50 PM79 °FPassing clouds.5 mph37%29.92 "HgN/A
5:20 PM77 °FSunny.7 mph39%29.95 "Hg10 mi
4:50 PM77 °FSunny.6 mph39%29.95 "Hg10 mi
4:20 PM77 °FPassing clouds.8 mph42%29.95 "HgN/A
3:50 PM77 °FSunny.5 mph44%29.95 "Hg10 mi
3:20 PM75 °FSunny.6 mph44%29.98 "Hg10 mi
2:50 PM75 °FPassing clouds.5 mph47%29.98 "HgN/A
2:20 PM73 °FPassing clouds.5 mph50%29.98 "HgN/A
1:50 PM73 °FPassing clouds.7 mph50%29.98 "HgN/A
1:20 PM72 °FPassing clouds.8 mph53%29.98 "HgN/A
12:50 PM72 °FPassing clouds.7 mph53%30.01 "HgN/A
12:20 PM70 °FPassing clouds.8 mph60%30.01 "HgN/A
Weather by CustomWeather, © 2014

See weather overviewHow to use our weather pages